STARLINK-35583 (66611 NORAD) Tracking and Keplerian Element Data

This shows tracking and keplerian element data for the satellite.

Feedback or suggestion? Click here.




ElementValue
Catalog66611
NameSTARLINK-35583
Epoch Orbit571
Epoch Day354.25003472
Epoch Year2025
RAAN148.7552
Inclination42.9992
Eccentricity0.0002458
Argument of Perigee267.5842
Mean Anonmoly357.5899
Mean Motion15.43893924
Decay Rate-0.02350299
L11 66611U 25270Z 25354.25003472 -.02350299 00000+0 -56673-1 0 9997
L22 66611 42.9992 148.7552 0002458 267.5842 357.5899 15.43893924 5719



Live tracking and technical data element details for STARLINK-35583 (NORAD 66611). STARLINK-35583 can be tracked NOW for your location showing map with azimuth and elevation plus other details from your city location.







IsCatalogInMostPopularTable: catalog: 66611, numindb: 7
Update: records affected: 1



GetName: 66611 STARLINK-35583

Hit Count: updated at: Tue, 10 Feb 2026 02:34:22 GMT